Starlink 5062

operational
NORAD ID: 55637 Int'l Des: 2023-021 Owner: SPXS Country: US Constellation: starlink
LEOCIRCULAR

Starlink 5062について

説明を読み込み中...

リアルタイム位置

3D地球を読み込み中...

次回通過

高度履歴

Altitude vs Time

uPlot chart will show altitude changes over time

軌道要素

1 55637U 23021K 25351.34133353 .00001064 00000-0 96982-4 0 9994
2 55637 70.0003 32.1989 0003352 268.8424 91.2351 14.98319856156453
Epoch: Dec 17, 2025 • Age: 7 hours

現在のステータス

高度 585.4 km
速度 7.57 km/s
衛星直下点 67.16°N, 139.98°E
打ち上げ日 Feb 17, 2023
運用期間 2.8 years
タイプ internet

技術仕様

分類 Payload
質量 305.00 kg
乾燥質量 290.00 kg
総質量 305.00 kg
長さ 0.20 m
直径 2.80 m
スパン 9.00 m
形状 Box + pan
製造者 SPXS
バスタイプ Starlink
フェーズステータス In Orbit
所有者/国 SPXS/US

大規模コンステレーション

Loading constellations...